Content
SEND FEEDBACK

Daily
Averages
Monthly
Summary
United Kingdom

RUGBY, ENGLAND


Home > Europe > United Kingdom > England
Elevation: 496 feet     Latitude: 52 28N     Longitude: 001 07W

WEATHER
 
SELECT A DAY
Number of Records: 184,940;   Date Range: 7/1/96 - 9/21/14
 
SHARE

PRINT THIS DATA

[ ← Previous Day ]
WEATHER ALMANAC - OCTOBER 8, 2013
[ Next Day → ]
[ °C ]   °F
We're sorry. There is no daily almanac available for Rugby, England on October 8, 2013.
WEATHER BY HOUR - OCTOBER 8, 2013
[ °C ]   °F
Local TimeTemperatureDewpointHumidityBarometerVisibilityWind DirectionWind SpeedGust SpeedPrecipitationEventsConditions
12:50 AM55.4 °F53.6 °F94 %30.24 in6.2 miSouth (190°)3.5 mphFogShallow Fog
1:20 AM53.6 °F51.8 °F94 %30.21 inSouth (190°)8.1 mphClear
1:50 AM53.6 °F51.8 °F94 %30.21 inSouth (190°)8.1 mphClear
7:50 AM55.4 °F53.6 °F94 %30.21 in5.6 miSouth (190°)5.8 mphScattered Clouds
8:20 AM55.4 °F53.6 °F94 %30.21 in5.6 miSouth (190°)5.8 mphPartly Cloudy
8:50 AM57.2 °F55.4 °F94 %30.21 in5.6 miSW (220°)9.2 mphPartly Cloudy
9:20 AM60.8 °F57.2 °F88 %30.21 in5.6 miSW (220°)10.4 mphScattered Clouds
9:50 AM60.8 °F57.2 °F88 %30.24 in6.2 miSW (230°)10.4 mphScattered Clouds
10:20 AM60.8 °F57.2 °F88 %30.24 in6.2 miSW (230°)10.4 mphScattered Clouds
10:50 AM62.6 °F57.2 °F82 %30.24 in6.2 miSW (220°)9.2 mphScattered Clouds
11:20 AM64.4 °F57.2 °F77 %30.24 in6.2 miSW (230°)11.5 mphScattered Clouds
11:50 AM64.4 °F57.2 °F77 %30.24 in6.2 miSW (230°)12.7 mphScattered Clouds
12:20 PM66.2 °F57.2 °F73 %30.21 in6.2 miWSW (240°)11.5 mphMostly Cloudy
12:50 PM66.2 °F59.0 °F78 %30.21 in6.2 miWSW (240°)12.7 mphMostly Cloudy
1:20 PM66.2 °F59.0 °F78 %30.21 in6.2 miSW (230°)9.2 mphMostly Cloudy
1:50 PM66.2 °F59.0 °F78 %30.21 in6.2 miWSW (250°)10.4 mphMostly Cloudy
2:20 PM68.0 °F59.0 °F73 %30.21 in6.2 miWSW (240°)10.4 mphMostly Cloudy
2:50 PM68.0 °F59.0 °F73 %30.21 in6.2 miWSW (240°)11.5 mphScattered Clouds
3:20 PM68.0 °F59.0 °F73 %30.21 in6.2 miWest (270°)9.2 mphScattered Clouds
3:50 PM68.0 °F57.2 °F68 %30.21 in6.2 miWest (260°)11.5 mphScattered Clouds
4:20 PM69.8 °F57.2 °F64 %30.21 in6.2 miWest (270°)11.5 mphScattered Clouds
4:50 PM68.0 °F53.6 °F60 %30.21 in6.2 miWest (280°)9.2 mphScattered Clouds
5:20 PM68.0 °F53.6 °F60 %30.21 in6.2 miWNW (290°)8.1 mphScattered Clouds
5:50 PM66.2 °F51.8 °F60 %30.21 in6.2 miWNW (290°)9.2 mphScattered Clouds
6:20 PM64.4 °F51.8 °F64 %30.21 in6.2 miWNW (290°)9.2 mphScattered Clouds
6:50 PM64.4 °F50.0 °F59 %30.24 in6.2 miWest (280°)6.9 mphPartly Cloudy
7:20 PM62.6 °F51.8 °F68 %30.24 in6.2 miVariable3.5 mphPartly Cloudy
7:50 PM60.8 °F51.8 °F72 %30.24 in6.2 miWSW (240°)5.8 mphPartly Cloudy
8:20 PM59.0 °F51.8 °F77 %30.24 in6.2 miWest (260°)6.9 mphScattered Clouds
8:50 PM60.8 °F53.6 °F77 %30.24 in6.2 miNW (310°)5.8 mphScattered Clouds
9:20 PM60.8 °F53.6 °F77 %30.24 in6.2 miNNW (330°)6.9 mphScattered Clouds
9:50 PM59.0 °F51.8 °F77 %30.24 in6.2 miNW (320°)8.1 mphScattered Clouds
10:20 PM59.0 °F51.8 °F77 %30.27 in6.2 miNNW (330°)6.9 mphScattered Clouds
10:50 PM59.0 °F50.0 °F72 %30.27 in6.2 miNW (310°)10.4 mphScattered Clouds
11:20 PM59.0 °F48.2 °F67 %30.24 in6.2 miWNW (300°)5.8 mphMostly Cloudy
11:50 PM57.2 °F50.0 °F77 %30.24 in6.2 miWNW (300°)5.8 mphMostly Cloudy
Hourly data recorded from EGBE, located miles away from Rugby, England







STORIES FROM OUR PARTNERS